Location: Fazenda Monte Alegre
(4.8500°S, 38.0333°W)
Time: 17:28:42
(UTC+00:00)

Fregat R/B Cluster 11 - Pass Details

Date: 24 September 2020
Orbit: 272 x 17568 km, 64.6° (Epoch: 24 October)

Event Time Altitude Azimuth Distance (km) Brightness Sun altitude
Rises 20:56:15 0° 202° (SSW) 3,442 8.2 -8.0°
Reaches altitude 10° 20:59:32 10° 201° (SSW) 1,698 6.6 -8.8°
Maximum altitude 21:02:30 82° 113° (ESE) 316 2.5 -9.5°
Drops below altitude 10° 21:04:23 10° 25° (NNE) 1,077 5.1 -10.0°
Enters shadow 21:05:41 - 24° (NNE) 1,791 6.2 -10.3°
